This demonstration page uses our WeatherBlox Daily Observations layout. Learn more.

39.29038, -76.61219

Hourly Observations for February 3, 2020

Temp ( °F °C ) Dew Point ( °F °C ) Humidity (%) Winds ( mph kmh ) Pressure ( in mb ) Visibility ( mi km ) Precip ( " mm )
12:54 am 00:54 undefined 39 3.9 34 1.1 82 82 undefined N/A 29.62 1003 N/A 0 0
1:54 am 01:54 undefined 39 3.9 33 0.6 79 79 undefined N/A 29.65 1004 N/A 0 0
2:54 am 02:54 undefined 38 3.3 33 0.6 83 83 undefined N/A 29.68 1005 N/A 0 0
3:54 am 03:54 undefined 38 3.3 33 0.6 83 83 undefined N/A 29.71 1006 N/A 0 0
4:54 am 04:54 undefined 38 3.3 33 0.6 83 83 undefined N/A 29.75 1008 N/A 0 0
5:54 am 05:54 undefined 38 3.3 34 1.1 86 86 undefined N/A 29.8 1009 N/A 0 0
6:54 am 06:54 undefined 38 3.3 33 0.6 83 83 undefined N/A 29.84 1010 N/A 0 0
7:54 am 07:54 undefined 39 3.9 34 1.1 82 82 undefined N/A 29.88 1012 N/A 0 0
8:54 am 08:54 undefined 48 8.9 37 2.8 66 66 undefined N/A 29.9 1013 N/A 0 0
9:54 am 09:54 undefined 52 11.1 38 3.3 59 59 undefined N/A 29.93 1014 N/A 0 0
10:54 am 10:54 undefined 54 12.2 39 3.9 57 57 undefined N/A 29.93 1014 N/A 0 0
11:54 am 11:54 undefined 61 16.1 40 4.4 46 46 undefined N/A 29.91 1013 N/A 0 0
12:54 pm 12:54 undefined 65 18.3 40 4.4 40 40 undefined N/A 29.89 1012 N/A 0 0
1:54 pm 13:54 undefined 61 16.1 38 3.3 43 43 undefined N/A 29.87 1012 N/A 0 0
2:54 pm 14:54 undefined 60 15.6 37 2.8 42 42 undefined N/A 29.85 1011 N/A 0 0
3:54 pm 15:54 undefined 58 14.4 36 2.2 44 44 undefined N/A 29.87 1011 N/A 0 0
4:54 pm 16:54 undefined 56 13.3 36 2.2 47 47 undefined N/A 29.86 1011 N/A 0 0
5:54 pm 17:54 undefined 56 13.3 36 2.2 47 47 undefined N/A 29.86 1011 N/A 0 0
6:54 pm 18:54 undefined 53 11.7 37 2.8 55 55 undefined N/A 29.87 1011 N/A 0 0
7:54 pm 19:54 undefined 51 10.6 37 2.8 59 59 undefined N/A 29.85 1011 N/A 0 0
8:54 pm 20:54 undefined 51 10.6 38 3.3 61 61 undefined N/A 29.84 1010 N/A 0 0
9:54 pm 21:54 undefined 50 10 38 3.3 63 63 undefined N/A 29.83 1010 N/A 0 0
10:54 pm 22:54 undefined 50 10 38 3.3 63 63 undefined N/A 29.83 1010 N/A 0 0
11:54 pm 23:54 undefined 48 8.9 39 3.9 71 71 undefined N/A 29.82 1010 N/A 0 0

Powered by AerisWeather